Waarnemingen

Advertentie
Mijn weer
Reims-Prunay, Frankrijk (7072): temperatuur & dauwpunt: 14.02.2019 14:00:00 - 20.02.2019 14:00:00 (CET)Reims-Prunay, Frankrijk (7072): temperatuur 5cm: 14.02.2019 14:00:00 - 20.02.2019 14:00:00 (CET)Reims-Prunay, Frankrijk (7072): temperatuur -20cm & temperatuur -100cm: 14.02.2019 14:00:00 - 20.02.2019 14:00:00 (CET)Reims-Prunay, Frankrijk (7072): windsnelheid & windstoten: 14.02.2019 14:00:00 - 20.02.2019 14:00:00 (CET)Reims-Prunay, Frankrijk (7072): windrichting: 14.02.2019 14:00:00 - 20.02.2019 14:00:00 (CET)Reims-Prunay, Frankrijk (7072): luchtdruk: 14.02.2019 14:00:00 - 20.02.2019 14:00:00 (CET)Reims-Prunay, Frankrijk (7072): zicht: 14.02.2019 14:00:00 - 20.02.2019 14:00:00 (CET)Reims-Prunay, Frankrijk (7072): Zonneschijnduur: 14.02.2019 14:00:00 - 20.02.2019 14:00:00 (CET)Reims-Prunay, Frankrijk (7072): neerslag: 14.02.2019 14:00:00 - 20.02.2019 14:00:00 (CET)
Datum & Tijd tt [°C] td [°C] tt 5cm [°C] tt -20cm [°C] tt -100cm [°C] ff [km/u] ff [kn] fx [km/u] fx [kn] dd ppp [hPa] vv [km] sd [min] rr [mm]
20.02.2019 14:00:00 - - - - - - - - - - - - - -
20.02.2019 13:00:00 8,9 8,0 9,1 4,7 6,6 10 5 16 9 O 1025,1 13 54 0,0
20.02.2019 12:00:00 6,2 5,9 - 4,7 6,6 10 5 14 7 OZO 1025,4 1,1 - -
20.02.2019 11:00:00 - - - - - - - - - - - - - -
20.02.2019 10:00:00 2,1 1,8 0,1 4,9 6,6 6 3 11 6 OZO 1025,1 1,1 16 0,0
20.02.2019 09:00:00 0,5 0,2 -0,4 5,0 6,6 6 4 13 7 O 1024,6 1,6 0 0,0
20.02.2019 08:00:00 0,1 -0,2 -1,7 5,1 6,6 8 4 10 5 O 1024,1 1,6 0 0,0
20.02.2019 07:00:00 0,1 -0,2 -2,3 5,2 6,6 8 4 11 6 O 1023,5 2,4 0 0,0
20.02.2019 06:00:00 0,1 -0,2 -4,3 5,3 6,6 10 5 11 6 O 1023,3 2,6 0 0,0
20.02.2019 05:00:00 0,5 0,1 -4,7 5,4 6,6 4 2 8 4 O 1023,2 1,7 0 0,0
20.02.2019 04:00:00 0,6 0,2 -3,1 5,5 6,6 8 4 9 5 O 1023,2 3,3 0 0,0
20.02.2019 03:00:00 0,8 0,4 -4,4 5,6 6,6 5 3 6 4 O 1023,5 3,0 0 0,0
20.02.2019 02:00:00 1,5 1,1 -3,4 5,7 6,6 5 3 9 5 ONO 1023,7 4,1 0 0,0
20.02.2019 01:00:00 0,7 0,1 -1,6 5,8 6,6 5 3 8 4 O 1023,6 3,9 0 0,0
20.02.2019 00:00:00 1,8 1,4 -2,6 5,9 6,6 5 3 9 5 O 1023,5 4,4 0 0,0
19.02.2019 23:00:00 0,7 0,0 -2,2 6,0 6,6 4 2 6 3 O 1023,4 6 0 0,0
19.02.2019 22:00:00 0,9 -0,1 -1,5 6,1 6,6 5 3 6 4 O 1023,5 10 0 0,0
19.02.2019 21:00:00 0,7 -0,5 -1,6 6,1 6,6 3 1 5 3 ONO 1023,4 13 0 0,0
19.02.2019 20:00:00 2,0 -0,1 -0,5 6,1 6,6 0 0 5 3 N 1023,1 15 0 0,0
19.02.2019 19:00:00 5,6 0,9 -1,6 6,1 6,5 4 2 6 3 W 1022,8 20 0 0,0
19.02.2019 18:00:00 9,0 2,5 6,1 5,9 6,5 4 2 11 6 W 1022,1 20 44 0,0
19.02.2019 17:00:00 10,8 2,9 12,1 5,8 6,6 8 4 16 8 W 1022,1 20 60 0,0
19.02.2019 16:00:00 11,5 2,8 10,9 5,7 6,5 8 4 17 9 W 1022,3 20 47 0,0
19.02.2019 15:00:00 11,3 4,3 11,7 5,5 6,5 5 3 14 8 NW 1022,3 20 37 0,0
19.02.2019 14:00:00 10,4 4,7 10,4 5,4 6,5 6 4 18 10 WNW 1022,7 20 12 0,0
19.02.2019 13:00:00 10,4 5,0 8,7 5,3 6,5 7 4 13 7 ZW 1023,0 20 24 0,0
19.02.2019 12:00:00 8,4 5,5 8,1 5,2 6,6 4 2 12 7 W 1023,3 20 9 0,0
19.02.2019 11:00:00 8,0 6,1 7,9 5,2 6,5 7 4 13 7 WNW 1023,2 15 6 0,0
19.02.2019 10:00:00 6,6 6,0 5,6 5,2 6,6 5 3 10 6 W 1022,7 9 2 0,0
19.02.2019 09:00:00 5,5 4,9 4,1 5,2 6,6 2 1 3 2 NNW 1022,4 3,4 0 0,0
19.02.2019 08:00:00 4,9 4,2 4,0 5,2 6,5 0 0 6 3 N 1021,5 2,2 0 0,0
19.02.2019 07:00:00 5,3 4,4 4,1 5,2 6,6 3 1 6 3 N 1020,9 2,8 0 0,2
19.02.2019 06:00:00 5,4 4,4 4,4 5,2 6,6 0 0 9 5 N 1020,6 4,2 0 0,6
19.02.2019 05:00:00 6,1 4,4 4,2 5,2 6,6 5 3 11 6 WNW 1020,0 9 0 0,4
19.02.2019 04:00:00 4,5 2,8 2,5 5,3 6,6 4 2 8 4 W 1019,6 20 0 0,0
19.02.2019 03:00:00 3,3 1,8 1,9 5,4 6,6 0 0 5 3 N 1019,5 20 0 0,0
19.02.2019 02:00:00 3,6 2,1 1,7 5,4 6,5 0 0 5 3 N 1019,1 20 0 0,0
19.02.2019 01:00:00 2,5 1,0 0,5 5,5 6,6 4 2 6 3 O 1019,2 20 0 0,0
19.02.2019 00:00:00 1,8 0,3 -0,6 5,6 6,6 3 2 6 3 NO 1018,9 20 0 0,0
18.02.2019 23:00:00 1,7 -0,2 -0,4 5,7 6,6 4 2 8 4 N 1018,5 20 0 0,0
18.02.2019 22:00:00 3,5 1,0 -1,6 5,7 6,5 5 3 9 5 O 1018,1 20 0 0,0
18.02.2019 21:00:00 4,0 1,4 0,3 5,7 6,6 8 4 12 7 OZO 1018,0 20 0 0,0
18.02.2019 20:00:00 6,6 2,5 4,6 5,7 6,5 10 6 16 9 O 1017,7 20 0 0,0
18.02.2019 19:00:00 7,5 2,6 3,5 5,6 6,6 12 6 14 8 O 1017,3 20 0 0,0
18.02.2019 18:00:00 9,3 3,5 7,5 5,4 6,5 12 6 18 10 ZO 1017,0 20 17 0,0
18.02.2019 17:00:00 13,2 3,3 14,2 5,3 6,6 9 5 26 14 Z 1017,2 20 50 0,0
18.02.2019 16:00:00 14,2 3,6 15,7 5,0 6,5 16 8 22 12 Z 1017,1 20 60 0,0
18.02.2019 15:00:00 14,0 3,4 15,7 4,9 6,5 11 6 22 12 Z 1017,3 20 60 0,0
18.02.2019 14:00:00 12,9 3,0 15,5 4,7 6,5 15 8 25 14 ZZO 1018,0 20 60 0,0
18.02.2019 13:00:00 11,7 2,4 14,2 4,5 6,5 14 8 21 11 ZO 1018,8 20 60 0,0
18.02.2019 12:00:00 10,6 2,4 13,0 4,5 6,6 13 7 16 9 OZO 1019,1 20 60 0,0
18.02.2019 11:00:00 9,0 1,2 10,2 4,5 6,6 11 6 16 8 ZO 1019,5 20 60 0,0
18.02.2019 10:00:00 6,6 1,5 5,4 4,6 6,5 9 5 14 8 O 1019,8 20 60 0,0
18.02.2019 09:00:00 2,7 0,3 0,5 4,7 6,5 11 6 16 9 O 1020,1 20 48 0,0
18.02.2019 08:00:00 1,3 -0,6 -0,6 4,8 6,5 15 8 21 11 OZO 1020,1 19 0 0,0
18.02.2019 07:00:00 0,7 -0,9 -1,2 4,9 6,6 14 8 18 10 O 1020,1 19 0 0,0
18.02.2019 06:00:00 1,1 -1,1 -1,0 4,9 6,6 6 3 14 8 O 1020,2 20 0 0,0
18.02.2019 05:00:00 1,8 -0,1 -0,9 5,0 6,6 8 4 18 10 OZO 1020,1 20 0 0,0
18.02.2019 04:00:00 1,2 -0,9 -0,2 5,1 6,6 11 6 16 9 O 1020,4 19 0 0,0
18.02.2019 03:00:00 2,1 -0,5 0,4 5,2 6,6 12 7 16 9 O 1020,7 20 0 0,0
18.02.2019 02:00:00 3,2 -0,3 1,5 5,3 6,6 14 8 18 10 O 1021,0 20 0 0,0
18.02.2019 01:00:00 3,0 -0,3 1,5 5,4 6,6 14 8 17 9 O 1020,9 20 0 0,0
18.02.2019 00:00:00 3,6 -0,6 2,1 5,5 6,6 13 7 17 9 O 1020,9 20 0 0,0
17.02.2019 23:00:00 3,9 -0,7 1,9 5,5 6,6 15 8 17 9 O 1020,9 20 0 0,0
17.02.2019 22:00:00 5,3 0,1 -1,7 5,5 6,5 14 8 16 9 O 1021,1 20 0 0,0
17.02.2019 21:00:00 5,5 0,5 -1,0 5,5 6,6 8 4 16 9 O 1021,0 20 0 0,0
17.02.2019 20:00:00 7,2 1,3 4,3 5,5 6,6 16 9 19 10 O 1020,8 20 0 0,0
17.02.2019 19:00:00 9,8 2,2 7,7 5,4 6,6 13 7 21 11 O 1020,5 20 0 0,0
17.02.2019 18:00:00 12,2 2,6 8,8 5,2 6,6 8 5 23 12 NO 1020,1 20 41 0,0
17.02.2019 17:00:00 14,8 2,7 16,5 5,0 6,6 16 9 24 13 Z 1020,1 20 60 0,0
17.02.2019 16:00:00 15,4 2,9 16,1 4,8 6,6 23 13 30 16 Z 1020,4 20 60 0,0
17.02.2019 15:00:00 15,6 2,7 18,3 4,6 6,5 17 9 25 13 ZZO 1020,6 20 60 0,0
17.02.2019 14:00:00 14,8 2,7 17,6 4,4 6,6 13 7 17 9 ZO 1021,3 20 60 0,0
17.02.2019 13:00:00 13,4 2,0 15,2 4,3 6,6 11 6 22 12 ZZO 1021,7 20 60 0,0
17.02.2019 12:00:00 11,1 2,9 13,3 4,3 6,6 9 5 19 10 OZO 1022,3 10 60 0,0
17.02.2019 11:00:00 9,5 2,3 7,6 4,3 6,6 9 5 22 12 ZO 1022,4 20 60 0,0
17.02.2019 10:00:00 4,8 1,8 2,8 4,4 6,6 16 9 24 13 O 1022,8 17 56 0,0
17.02.2019 09:00:00 2,1 0,3 0,5 4,4 6,6 18 10 24 13 O 1022,9 10 46 0,0
17.02.2019 08:00:00 1,0 -0,5 -0,3 4,5 6,6 16 9 23 12 O 1022,9 10 0 0,0
17.02.2019 07:00:00 1,0 -0,6 -0,1 4,6 6,6 15 8 24 13 O 1022,9 9 0 0,0
17.02.2019 06:00:00 1,5 0,3 -3,0 4,7 6,6 20 11 26 14 O 1022,9 12 0 0,0
17.02.2019 05:00:00 0,3 -0,7 -3,3 4,8 6,6 7 4 12 7 OZO 1023,3 10 0 0,0
17.02.2019 04:00:00 0,3 -0,6 -3,6 4,9 6,6 9 5 13 7 O 1023,7 8 0 0,0
17.02.2019 03:00:00 0,7 -0,2 -2,5 5,0 6,6 8 4 10 6 ZO 1024,3 9 0 0,0
17.02.2019 02:00:00 0,3 -0,6 -3,7 5,1 6,6 8 4 11 6 O 1024,6 8 0 0,0
17.02.2019 01:00:00 1,0 0,0 -4,6 5,1 6,6 5 3 9 5 ZO 1024,9 7 0 0,0
17.02.2019 00:00:00 0,6 -0,4 -2,4 5,2 6,6 9 5 14 8 OZO 1025,3 7 0 0,0
16.02.2019 23:00:00 1,7 0,5 -2,2 5,3 6,6 7 4 12 7 O 1025,6 7 0 0,0
16.02.2019 22:00:00 3,1 1,6 -0,5 5,3 6,6 6 4 10 5 ONO 1025,8 10 0 0,0
16.02.2019 21:00:00 4,1 1,8 0,2 5,4 6,6 8 4 15 8 O 1025,9 9 0 0,0
16.02.2019 20:00:00 4,3 2,0 0,9 5,3 6,6 11 6 16 9 O 1026,0 11 0 0,0
16.02.2019 19:00:00 5,7 3,0 1,1 5,2 6,6 8 5 14 8 O 1026,1 12 0 0,0
16.02.2019 18:00:00 9,1 4,1 6,5 5,0 6,6 8 5 11 6 OZO 1025,8 20 34 0,0
16.02.2019 17:00:00 13,1 5,5 13,3 4,8 6,6 9 5 14 7 ZO 1025,8 20 55 0,0
16.02.2019 16:00:00 15,0 4,4 16,0 4,5 6,6 8 4 13 7 ZO 1026,1 20 60 0,0
16.02.2019 15:00:00 15,0 4,1 17,7 4,3 6,6 8 5 13 7 O 1026,5 20 60 0,0
16.02.2019 14:00:00 13,8 4,9 17,1 4,1 6,6 8 5 14 8 O 1027,0 20 60 0,0
16.02.2019 13:00:00 12,0 5,2 13,9 4,0 6,6 8 5 16 8 O 1027,6 19 60 0,0
16.02.2019 12:00:00 9,6 4,4 10,8 4,0 6,6 11 6 16 9 OZO 1028,0 19 60 0,0
16.02.2019 11:00:00 6,7 2,4 7,5 4,1 6,6 9 5 13 7 OZO 1028,2 18 60 0,0
16.02.2019 10:00:00 4,2 1,4 3,9 4,2 6,6 9 5 11 6 O 1028,3 18 60 0,0
16.02.2019 09:00:00 1,5 0,0 -2,0 4,3 6,6 11 6 13 7 O 1028,1 12 44 0,0
16.02.2019 08:00:00 -0,9 -2,0 -4,6 4,3 6,6 11 6 14 8 O 1027,9 11 0 0,0
16.02.2019 07:00:00 -0,5 -1,8 -4,3 4,4 6,6 8 4 13 7 O 1027,4 13 0 0,0
16.02.2019 06:00:00 0,1 -1,3 -3,3 4,5 6,6 11 6 13 7 O 1027,5 13 0 0,0
16.02.2019 05:00:00 0,5 -1,0 -1,7 4,6 6,6 10 5 12 7 O 1027,5 16 0 0,0
16.02.2019 04:00:00 1,3 -0,2 -1,6 4,6 6,6 9 5 12 7 O 1027,4 18 0 0,0
16.02.2019 03:00:00 1,3 -0,3 -2,6 4,7 6,6 9 5 10 6 O 1027,6 15 0 0,0
16.02.2019 02:00:00 1,0 -0,5 -2,0 4,8 6,6 6 3 13 7 OZO 1027,7 13 0 0,0
16.02.2019 01:00:00 1,9 0,0 0,4 4,9 6,6 8 4 22 12 O 1027,7 13 0 0,0
16.02.2019 00:00:00 2,3 0,7 -1,2 5,0 6,6 19 10 22 12 O 1027,4 16 0 0,0
15.02.2019 23:00:00 1,3 -0,3 -1,0 5,0 6,6 9 5 13 7 O 1027,9 14 0 0,0
15.02.2019 22:00:00 3,0 1,0 -2,5 5,1 6,6 9 5 13 7 O 1028,0 20 0 0,0
15.02.2019 21:00:00 2,1 0,8 -3,5 5,1 6,6 4 2 6 4 O 1028,2 19 0 0,0
15.02.2019 20:00:00 3,1 1,3 -2,1 5,0 6,6 2 1 6 3 O 1028,4 18 0 0,0
15.02.2019 19:00:00 6,2 3,0 -1,2 4,9 6,6 5 3 11 6 O 1028,3 20 0 0,0
15.02.2019 18:00:00 9,5 4,5 4,5 4,8 6,6 0 0 12 6 N 1028,1 20 37 0,0
15.02.2019 17:00:00 13,8 4,4 16,0 4,6 6,6 10 5 16 9 Z 1028,0 20 60 0,0
15.02.2019 16:00:00 14,6 5,1 15,3 4,3 6,6 11 6 18 10 ZZO 1028,6 20 60 0,0
15.02.2019 15:00:00 14,3 3,7 16,1 4,1 6,6 13 7 22 12 ZZO 1029,3 20 60 0,0
15.02.2019 14:00:00 13,3 4,2 15,6 3,9 6,6 14 7 24 13 ZO 1029,9 20 60 0,0
15.02.2019 13:00:00 12,0 3,0 13,4 3,9 6,6 14 7 18 10 ZO 1030,5 20 60 0,0
15.02.2019 12:00:00 9,4 3,4 10,0 3,9 6,6 16 8 21 11 OZO 1031,5 17 60 0,0
15.02.2019 11:00:00 6,6 2,1 7,7 4,0 6,6 16 9 20 11 O 1032,0 19 60 0,0
15.02.2019 10:00:00 4,5 1,3 5,3 4,1 6,7 10 6 14 7 OZO 1032,1 20 60 0,0
15.02.2019 09:00:00 1,6 -0,3 -2,5 4,1 6,6 6 3 10 5 O 1032,6 16 42 0,0
15.02.2019 08:00:00 -0,8 -2,2 -3,3 4,2 6,6 9 5 10 5 O 1032,3 16 0 0,0
15.02.2019 07:00:00 -0,7 -2,3 -3,4 4,3 6,6 8 4 10 5 O 1032,2 20 0 0,0
15.02.2019 06:00:00 -0,6 -2,2 -2,5 4,4 6,7 9 5 11 6 O 1032,5 20 0 0,0
15.02.2019 05:00:00 -0,3 -1,6 -2,6 4,4 6,6 8 4 13 7 O 1032,2 20 0 0,0
15.02.2019 04:00:00 0,0 -1,4 -3,7 4,5 6,6 8 4 13 7 O 1032,3 18 0 0,0
15.02.2019 03:00:00 1,2 -0,4 -2,4 4,6 6,6 8 4 14 8 O 1032,3 19 0 0,0
15.02.2019 02:00:00 -0,3 -1,6 -2,6 4,7 6,7 9 5 14 8 O 1033,0 12 0 0,0
15.02.2019 01:00:00 1,0 -0,3 -1,4 4,7 6,6 14 8 17 9 O 1032,9 15 0 0,0
15.02.2019 00:00:00 0,7 -0,6 -1,6 4,8 6,7 12 6 16 9 O 1033,1 11 0 0,0
14.02.2019 23:00:00 1,4 0,1 -3,1 4,9 6,6 6 4 11 6 OZO 1033,2 14 0 0,0
14.02.2019 22:00:00 1,6 0,0 -2,8 4,9 6,6 5 3 13 7 OZO 1033,2 13 0 0,0
14.02.2019 21:00:00 1,7 0,2 -3,0 4,9 6,7 9 5 13 7 O 1033,1 15 0 0,0
14.02.2019 20:00:00 2,7 0,8 -2,6 4,9 6,6 7 4 11 6 OZO 1033,2 16 0 0,0
14.02.2019 19:00:00 5,1 2,4 0,0 4,8 6,7 10 6 12 7 O 1033,1 18 0 0,0
14.02.2019 18:00:00 7,7 4,5 4,9 4,6 6,6 7 4 14 7 O 1032,9 18 35 0,0
14.02.2019 17:00:00 11,4 4,8 13,4 4,4 6,6 7 4 14 8 ZZO 1033,0 20 60 0,0
14.02.2019 16:00:00 11,9 4,1 13,0 4,3 6,7 10 6 16 9 ZZO 1033,2 20 60 0,0
14.02.2019 15:00:00 11,5 3,8 14,0 4,1 6,6 11 6 18 10 Z 1033,9 20 60 0,0
14.02.2019 14:00:00 10,4 3,2 12,7 3,9 6,6 11 6 18 10 ZO 1034,4 19 60 0,0

tt = temperatuur
td = dauwpunt
tt 5cm = temperatuur 5cm
tt -20cm = temperatuur -20cm
tt -100cm = temperatuur -100cm
ff = windsnelheid
fx = windstoten
dd = windrichting
ppp = luchtdruk
vv = zicht
sd = Zonneschijnduur
rr = neerslag

Weerstations in de omgeving